Tucson, AZ

2:40 AM MST on January 18, 2017 (GMT -0700)
Tucson International

Weather History for KTUS - November, 2012

Change the Weather History Date:

Thursday, November 29, 2012

  Actual Average Record
Temperature  
Mean Temperature 61 °F 55 °F  
Max Temperature 75 °F 68 °F 87 °F (1999)
Min Temperature 47 °F 42 °F 23 °F (1934)
Degree Days  
Heating Degree Days 4 10  
Month to date heating degree days 62 173  
Since 1 July heating degree days 64 197  
Cooling Degree Days 0 0  
Month to date cooling degree days 64 25  
Year to date cooling degree days 3597 3144  
Growing Degree Days 10 (Base 50)    
Moisture  
Dew Point 33 °F    
Average Humidity 39    
Maximum Humidity 61    
Minimum Humidity 17    
Precipitation  
Precipitation 0.00 in 0.03 in 0.58 in (1981)
Month to date precipitation 0.03 0.55  
Year to date precipitation 6.73 10.64  
Snow  
Snow 0.00 in - - ()
Month to date snowfall 0.0  
Snow Depth 0.00 in    
Sea Level Pressure  
Sea Level Pressure 30.12 in    
Wind  
Wind Speed 6 mph (South)    
Max Wind Speed 12 mph    
Max Gust Speed 21 mph    
Visibility 10 miles    
Events      
T = Trace of Precipitation, MM = Missing Value Source: NWS Daily Summary

Daily Weather History Graph

Daily Weather History Graph

Search for Another Location

Airport or City:

Trip Planner

Search our weather history database for the weather conditions in past years. The results will help you decide how hot, cold, wet, or windy it might be!

Date:

Astronomy

Nov. 29, 2012 Rise Set
Actual Time 7:05 AM MST 5:18 PM MST
Civil Twilight 6:38 AM MST 5:45 PM MST
Nautical Twilight 6:08 AM MST 6:15 PM MST
Astronomical Twilight 5:39 AM MST 6:45 PM MST
Moon 6:25 PM MST (11/29) 7:54 AM MST (11/29)
Length of Visible Light 11h 06m
Length of Day
10h 13m
Full, 99% of the Moon is Illuminated
Nov 29
Full
Dec 6
Last Quarter
Dec 13
New
Dec 19
First Quarter
Dec 28
Full

Hourly Weather History & Observations

Time (MST) Temp. Dew Point Humidity Pressure Visibility Wind Dir Wind Speed Gust Speed Precip Events Conditions
12:53 AM 54.0 °F 33.1 °F 45% 30.12 in 10.0 mi SSE 8.1 mph - N/A   Clear
1:53 AM 51.1 °F 33.1 °F 50% 30.11 in 10.0 mi SSE 6.9 mph - N/A   Clear
2:53 AM 50.0 °F 33.1 °F 52% 30.11 in 10.0 mi SSE 6.9 mph - N/A   Clear
3:53 AM 48.9 °F 33.1 °F 54% 30.11 in 10.0 mi SSE 9.2 mph - N/A   Clear
4:53 AM 48.0 °F 34.0 °F 58% 30.11 in 10.0 mi SE 6.9 mph - N/A   Clear
5:53 AM 46.9 °F 34.0 °F 61% 30.13 in 10.0 mi SE 6.9 mph - N/A   Clear
6:53 AM 48.0 °F 35.1 °F 61% 30.14 in 10.0 mi South 8.1 mph - N/A   Clear
7:53 AM 48.9 °F 34.0 °F 56% 30.16 in 10.0 mi SSE 6.9 mph - N/A   Clear
8:53 AM 55.0 °F 35.1 °F 47% 30.17 in 10.0 mi SSE 5.8 mph - N/A   Clear
9:53 AM 60.1 °F 36.0 °F 41% 30.17 in 10.0 mi Variable 3.5 mph - N/A   Clear
10:53 AM 66.9 °F 36.0 °F 32% 30.16 in 10.0 mi Calm Calm - N/A   Clear
11:53 AM 71.1 °F 35.1 °F 27% 30.13 in 10.0 mi North 4.6 mph - N/A   Clear
12:53 PM 72.0 °F 35.1 °F 26% 30.11 in 10.0 mi WNW 4.6 mph - N/A   Clear
1:53 PM 73.9 °F 34.0 °F 23% 30.08 in 10.0 mi Variable 4.6 mph - N/A   Clear
2:53 PM 75.0 °F 32.0 °F 21% 30.07 in 10.0 mi WNW 9.2 mph - N/A   Clear
3:53 PM 75.0 °F 30.0 °F 19% 30.06 in 10.0 mi North 10.4 mph - N/A   Clear
4:53 PM 72.0 °F 25.0 °F 17% 30.07 in 10.0 mi NNW 11.5 mph - N/A   Clear
5:53 PM 69.1 °F 28.0 °F 22% 30.09 in 10.0 mi NW 5.8 mph - N/A   Clear
6:53 PM 63.0 °F 33.1 °F 33% 30.11 in 10.0 mi WSW 5.8 mph - N/A   Clear
7:53 PM 61.0 °F 34.0 °F 36% 30.12 in 10.0 mi West 4.6 mph - N/A   Clear
8:53 PM 57.9 °F 33.1 °F 39% 30.12 in 10.0 mi SE 4.6 mph - N/A   Clear
9:53 PM 55.9 °F 30.9 °F 39% 30.13 in 10.0 mi SSE 4.6 mph - N/A   Clear
10:53 PM 54.0 °F 30.0 °F 40% 30.12 in 10.0 mi Calm Calm - N/A   Clear
11:53 PM 52.0 °F 28.9 °F 41% 30.12 in 10.0 mi SSE 3.5 mph - N/A   Clear